Regional Weather Roundup
Issued by NWS Newport/Morehead, NC

Current Version | Previous Version | Graphics & Text | Print | Product List | Glossary On
Versions: 1 2 3 4 5 6 7 8 9 10 11 12 13 14 15 16 17 18 19 20 21 22 23 24 25 26 27 28 29 30 31 32 33 34 35 36 37 38 39 40 41 42 43 44 45 46 47 48 49 50
955 ASUS42 KMHX 280614 RWRMHX WEATHER ROUNDUP FOR EASTERN NORTH CAROLINA NATIONAL WEATHER SERVICE NEWPORT/MOREHEAD CITY NC 200 AM EDT FRI JUL 28 2017 NOTE: "FAIR" INDICATES FEW OR NO CLOUDS BELOW 12,000 FEET WITH NO SIGNIFICANT WEATHER AND/OR OBSTRUCTIONS TO VISIBILITY NCZ015>017-031-032-045>047-102-103-280700- NORTH COAST CITY SKY/WX TMP DP RH WIND PRES REMARKS EDENTON CLOUDY 80 73 81 SW9 29.91S ELIZABETH CITY MOCLDY 79 74 84 SW13G22 29.89F KITTY HAWK MOCLDY 78 69 73 SW9 29.89F MANTEO MOCLDY 78 71 77 SW14 29.91F $$ NCZ045>047-081-094-103-104-280700- CENTRAL COAST CITY SKY/WX TMP DP RH WIND PRES REMARKS FRISCO MOCLDY 80 71 74 SW13G20 29.93F $$ NCZ095-097-098-100-101-280700- SOUTHERN COAST CITY SKY/WX TMP DP RH WIND PRES REMARKS BEAUFORT CLEAR 81 75 82 S12 29.92F CEDAR ISLAND NOT AVBL JACKSONVILLE PTCLDY 76 75 97 S3 29.91F PINEY ISLAND PTCLDY N/A N/A N/A S7 29.92F WILMINGTON CLEAR 75 74 96 S5 29.93F $$ NCZ011>013-027>030-043-044-078>080-089-090>093-098-280700- COASTAL PLAIN CITY SKY/WX TMP DP RH WIND PRES REMARKS AHOSKIE N/A 75 70 83 S5 29.89F CLINTON CLOUDY 75 74 96 CALM 29.92S ELIZABETHTOWN NOT AVBL GOLDSBORO NOT AVBL GREENVILLE MOCLDY 77 73 88 SW9 29.92F HAVELOCK MOCLDY 78 71 79 S6 29.92F KENANSVILLE PTCLDY 75 73 94 CALM 29.91F KINSTON CLOUDY 78 73 84 S9 29.91F NEW BERN CLOUDY 76 74 93 S5 29.93F RICHLANDS PTCLDY 75 73 93 S6 29.92F ROCKY MOUNT CLOUDY 75 73 93 S6 29.89F WASHINGTON CLOUDY 77 73 87 SW6 29.91F WHITEVILLE CLEAR 76 73 93 S6 29.93S $$ AMZ130-135-150-152-154-156-158-170-250-252-270-ANZ085-086-088-633-658-670-280700- MARINE OBSERVATIONS STATION/POSITION TIME TEMP WIND PRES WAVE SWELL AIR SEA DIR/SP/G HT/PER HT/PER (UTC) (F) (DEG/KT/KT) (MB) (FT/S) (FT/S) CHESAPEAKE LIGHT NOT AVBL 64 E VA BEACH 0550 78 77 220/ 17/ 21 1012.0 4/ 5 2/ 8 DUCK 0548 210/ 14/ 19 1011.9 2 E DUCK 0600 70 N/A 2/ 9 OREGON INLET 0542 200/ 19/ 22 1012.7 13E OREGON INLT 0548 77 N/A 3/ 3 2/ 8 HATTERAS CG 0548 200/ 7/ 12 1013.3 DIAMOND BUOY 0550 81 83 190/ 17/ 19 1013.0 3/ 8 2/ 8 CAPE LOOKOUT 0600 80 190/ 9/ 10 1013.4 BEAUFORT LAB 0548 190/ 12/ 14 1012.8 30 SE NEW RVR IN 0508 81 84 230/ 12/ 16 1013.9 30 SE NEW RVR IN 0543 84 N/A 3/ 3 27 SE WRIGHTSVLE 0508 81 83 220/ 12/ 19 1013.9 5 SE WRIGHTSVLE 0508 80 82 250/ 8/ 14 1013.8 225 S CAPE HAT 0550 82 83 250/ 10/ 12 1015.0 3/ 7 2/ 7 41 SE CHARLESTON 0550 80 82 160/ 12/ 23 1013.0 2/ 3 2/ 7 $$

USA.gov is the U.S. government's official web portal to all federal, state and local government web resources and services.